Regional Weather Roundup
Issued by NWS Sterling, VA

Home | Current Version | Previous Version | Text Only | Print | Product List | Glossary On
Versions: 1 2 3 4 5 6 7 8 9 10 11 12 13 14 15 16 17 18 19 20 21 22 23 24 25 26 27 28 29 30 31 32 33 34 35 36 37 38 39 40 41 42 43 44 45 46 47 48 49 50
000
ASUS41 KLWX 082010
RWRLWX

REGIONAL WEATHER ROUNDUP
NATIONAL WEATHER SERVICE BALTIMORE MD/WASHINGTON DC
300 PM EST THU DEC 08 2016

Note: "FAIR" indicates few or no clouds below 12,000 feet
with no significant weather and/or obstructions to visibility.
 TC=TEMPERATURE CELSIUS

 * =Non NWS site. Station does not report precipitation (e.g. rain,
    snow, etc.), thunder, or fog.

DCZ001-MDZ009-015-VAZ040>042-051-053>054-082100-
WASHINGTON METRO

CITY           SKY/WX    TMP DP  RH WIND       PRES   REMARKS
WASHINGTON NAT PTSUNNY   48  18  30 W9        30.01S
DULLES         PTSUNNY   47  17  30 W21G30    30.01R
ANDREWS AFB    PTSUNNY   45  18  34 W13G23    29.99R
FT BELVOIR     PTSUNNY   47  19  33 VRB5      30.01R
QUANTICO       CLOUDY    47  23  38 W8        30.04R
COLLEGE PARK*  PTSUNNY   45  19  36 W7        29.99S
MANASSAS*        N/A    N/A N/A N/A W5        30.02
GAITHERSBURG*  MOSUNNY   45  18  33 NW16G30   30.03R

$$

MDZ006>007-011-014-082100-
BALTIMORE METRO

CITY           SKY/WX    TMP DP  RH WIND       PRES   REMARKS
BWI AIRPORT    PTSUNNY   45  20  36 W13G21    29.98S
MD SCIENCE CTR   N/A     47  18  31 MISG      29.98S
MARTIN STATE   PTSUNNY   46  23  39 SW8       29.99S
ANNAPOLIS      PTSUNNY   48  20  32 W9        29.99R
FORT MEADE*    PTSUNNY   45  23  42 W12G20    30.01S

$$

MDZ012-015-019>023-082100-
MARYLAND EASTERN SHORE

CITY           SKY/WX    TMP DP  RH WIND       PRES   REMARKS
OCEAN CITY     CLOUDY    42  36  79 W6        29.99S
SALISBURY      CLOUDY    43  38  82 SW6       29.99R
BAY BRIDGE AP* PTSUNNY   46  23  39 NW15G22   29.99S
EASTON*        CLOUDY    46  21  36 NW9G20    30.02S

$$

MDZ017>025-082100-
SOUTHERN MARYLAND

CITY           SKY/WX    TMP DP  RH WIND       PRES   REMARKS
PATUXENT RIVER PTSUNNY   49  34  56 W7        30.00S
ST INIGOES     CLOUDY    46  38  73 SW5       30.00S
LEONARDTOWN*   CLOUDY    48  28  46 W14G25    30.01S

$$

MDZ003>005-082100-
NORTH CENTRAL MARYLAND

CITY           SKY/WX    TMP DP  RH WIND       PRES   REMARKS
FREDERICK*     MOSUNNY   45  19  36 NW15G26   30.03R
HAGERSTOWN APT MOSUNNY   42  14  32 NW25G32   30.01R
WESTMINSTER*   MOSUNNY   43  18  36 W12G24    29.97R

$$

MDZ501>502-082100-
WESTERN MARYLAND

CITY           SKY/WX    TMP DP  RH WIND       PRES   REMARKS
OAKLAND*       MOSUNNY   27  14  59 W12G21    29.97R WCI  16
CUMBERLAND*    NOT AVBL

$$

VAZ025>031-082100-
SHENANDOAH VALLEY

CITY           SKY/WX    TMP DP  RH WIND       PRES   REMARKS
WINCHESTER*    NOT AVBL
FRONT ROYAL*   NOT AVBL
LURAY*         NOT AVBL
NEW MARKET*    NOT AVBL
STAUNTON*      NOT AVBL
WAYNESBORO*    NOT AVBL

$$

WVZ021-048>050-054>055-082100-
EASTERN WEST VIRGINIA PANHANDLE

CITY           SKY/WX    TMP DP  RH WIND       PRES   REMARKS
MARTINSBURG    CLOUDY    43  16  33 W18G24    30.02R
PETERSBURG*    NOT AVBL

$$

VAZ036>039-050-082100-
CENTRAL FOOTHILLS

CITY           SKY/WX    TMP DP  RH WIND       PRES   REMARKS
CHARLOTTESVILL MOSUNNY   47  21  35 VRB7      30.03R
CULPEPER*      NOT AVBL
ORANGE*        NOT AVBL
GORDONSVILLE*  NOT AVBL
WARRENTON*     NOT AVBL

$$

VAZ055>057-082100-
NORTH AND CENTRAL PIEDMONT

CITY           SKY/WX    TMP DP  RH WIND       PRES   REMARKS
FREDERICKSBRG* NOT AVBL
STAFFORD*      NOT AVBL

$$

NCZ024-NYZ072-PAZ021-071-VAZ022-071-082100-
OTHER REGIONAL OBSERVATIONS

CITY           SKY/WX    TMP DP  RH WIND       PRES   REMARKS
NEW YORK CITY    N/A     45  21  39 MISG        N/A
PHILADELPHIA   CLOUDY    46  17  31 W24       29.95R
PITTSBURGH     FLURRIES  28  17  63 W15G23    30.11R WCI  16
ROANOKE        PTSUNNY   45  16  31 W15G21    30.09R
RICHMOND       PTSUNNY   51  21  30 W16       30.02R
RALEIGH        PTSUNNY   50  18  28 VRB7G16   30.09R

$$

ANZ530>537-082100-
MARINE OBSERVATIONS

STATION/POSITION TIME  TEMP    WIND        PRES
                       AIR SEA DIR/SP/G
                 (UTC) (F)     (DEG/KT/KT) (MB)
THOMAS PT LIGHT  2000   46 48  280/ 17/ 21   N/A
BALT KEY BRIDGE  1948   46     260/ 15/ 17 1015.1R
COVE POINT       1948   46     310/  4/  8 1016.5R
LEWISETTA        1948   46 48  230/  2/  2 1015.7F
SOLOMONS ISLAND  1936   49 51  260/  9/ 12   N/A
PINEY POINT      1948          330/  8/  9   N/A

$$




USA.gov is the U.S. government's official web portal to all federal, state and local government web resources and services.